This is the latest recevied weather packets stored in our database for station/object OK1HOL-13. If no packets are shown the sender has not sent any weather packets the latest 10 day(s).
| Time | Temp. | Humidity | Pressure | Rain* | Wind** | Luminosity | Snow |
|---|---|---|---|---|---|---|---|
| 1778003161 | 20.56° C | 45% | 1003.8 hPa | - | - | 9 W/m² | - |
| 1778002561 | 21.11° C | 43% | 1004 hPa | - | - | 13 W/m² | - |
| 1778001961 | 21.11° C | 43% | 1004 hPa | - | - | 15 W/m² | - |
| 1778001361 | 21.67° C | 43% | 1004.1 hPa | - | - | 20 W/m² | - |
| 1778000761 | 21.67° C | 43% | 1004.2 hPa | - | - | 18 W/m² | - |
| 1778000161 | 21.11° C | 44% | 1004.3 hPa | - | - | 17 W/m² | - |
| 1777999561 | 22.22° C | 42% | 1004.3 hPa | - | - | 13 W/m² | - |
| 1777998961 | 22.78° C | 39% | 1004.2 hPa | - | - | 13 W/m² | - |
| 1777998361 | 25° C | 30% | 1003.9 hPa | - | - | 12 W/m² | - |
| 1777997761 | 25.56° C | 29% | 1003.7 hPa | - | - | 35 W/m² | - |
| 1777997161 | 26.67° C | 28% | 1003.7 hPa | - | - | 61 W/m² | - |
| 1777996561 | 26.67° C | 27% | 1003.7 hPa | - | - | 74 W/m² | - |
| 1777995961 | 26.11° C | 28% | 1003.8 hPa | - | - | 118 W/m² | - |
| 1777995361 | 26.67° C | 28% | 1004 hPa | - | - | 166 W/m² | - |
| 1777994761 | 26.67° C | 29% | 1004.2 hPa | - | - | 189 W/m² | - |
| 1777994161 | 25.56° C | 30% | 1004.2 hPa | - | - | 100 W/m² | - |
| 1777993561 | 25.56° C | 32% | 1004.3 hPa | - | - | 79 W/m² | - |
| 1777992961 | 25° C | 32% | 1004.5 hPa | - | - | 40 W/m² | - |
| 1777992361 | 25.56° C | 31% | 1004.6 hPa | - | - | 26 W/m² | - |
| 1777991761 | 25.56° C | 31% | 1004.7 hPa | - | - | 37 W/m² | - |
| 1777991161 | 26.11° C | 29% | 1004.7 hPa | - | - | 68 W/m² | - |
| 1777990561 | 25.56° C | 30% | 1004.8 hPa | - | - | 78 W/m² | - |
| 1777989961 | 26.67° C | 27% | 1004.9 hPa | - | - | 95 W/m² | - |
| 1777989361 | 26.11° C | 29% | 1005 hPa | - | - | 206 W/m² | - |
| 1777988761 | 27.22° C | 28% | 1005 hPa | - | - | 336 W/m² | - |
* Rain since midnight (hover to see other rain measurements)
** Current wind speed in m/s (hover to see current wind gust speed)